Weather observations for the past three days for
Oakley Municipal Airport
Imperial (Metric)
Date Time (cdt) Wind (mph) Vis. (mi.) Weather Sky Cond. Temperature (ºF) Relative Humidity Wind Chill (°F) Heat Index (°F) Pressure Precipitation (in)
Air Dwpt 6 hour altimeter (in) sea level (mb) 1 hr 3 hr 6 hr
Max. Min.
04 12:15 SW 12 G 17 10.00 Fair CLR 91.4 57.9 32% 90 29.94 0.0
04 11:55 SW 12 G 20 10.00 Fair CLR 90.7 58.3 34% 90 29.94 0.0
04 11:35 SW 15 10.00 Fair CLR 88.7 58.3 36% 88 29.93 0.0
04 10:35 SW 16 G 23 10.00 Fair CLR 85.1 59.2 42% 85 29.93 0.0
04 10:15 SW 14 G 22 10.00 Fair CLR 83.8 59 43% 84 29.93 0.0
04 09:55 S 18 G 24 10.00 Fair CLR 83.3 59.7 45% 83 29.93 0.0
04 09:35 S 17 G 21 10.00 Fair CLR 81.1 60.3 49% 82 29.93 0.0
04 09:15 S 14 10.00 Fair CLR 78.8 60.1 53% 80 29.93 0.0
04 08:55 S 14 10.00 Fair CLR 78.6 60.1 53% 80 29.93 0.0
04 08:35 S 14 G 20 10.00 Fair CLR 77.9 59.7 54% 79 29.93 0.0
04 08:15 S 15 10.00 Fair CLR 76.5 59.5 56% 78 29.92 0.0
04 07:55 S 13 10.00 Fair CLR 74.3 59.4 60% 29.92 0.0
04 07:35 S 14 10.00 Fair CLR 73.4 59.5 62% 29.91 0.0
04 07:15 S 10 10.00 Fair CLR 73.6 59.4 61% 29.92 0.0
04 06:55 S 10 10.00 Fair CLR 73.6 59 75.4 70 60% 29.92 0.0
04 06:35 S 10 10.00 Fair CLR 73.6 59 60% 29.91 0.0
04 06:15 SW 8 10.00 Fair CLR 72 59.2 64% 29.92 0.0
04 05:55 S 9 10.00 Fair CLR 72.5 58.8 62% 29.91 0.0
04 05:35 S 9 10.00 Partly Cloudy SCT120 70.9 58.1 64% 29.91 0.0
04 05:15 S 8 10.00 Partly Cloudy SCT120 70.7 57.2 62% 29.91 0.0
04 04:55 S 6 10.00 Fair CLR 70.3 57 63% 29.92 0.0
04 04:35 S 8 10.00 Fair CLR 72.5 56.3 57% 29.91 0.0
04 04:15 S 7 10.00 Fair CLR 71.4 56.8 60% 29.91 0.0
04 03:55 S 8 10.00 Fair CLR 71.6 56.7 59% 29.91 0.0
04 03:35 S 8 10.00 Fair CLR 71.2 57 61% 29.91 0.0
04 03:15 S 6 10.00 Fair CLR 72.1 56.5 58% 29.91 0.0
04 02:55 S 9 10.00 Fair CLR 73.2 56.3 56% 29.92 0.0
04 02:35 S 8 10.00 Fair CLR 72.7 56.5 57% 29.92 0.0
04 02:15 S 8 10.00 Fair CLR 73.9 56.3 54% 29.92 0.0
04 01:55 S 10 10.00 Fair CLR 74.7 56.5 53% 29.92 0.0
04 01:35 S 9 10.00 Fair CLR 75.4 57.4 54% 78 29.92 0.0
04 01:15 SE 7 10.00 Fair CLR 73.4 59 61% 29.92 0.0
04 00:55 SE 3 10.00 Fair CLR 74.5 58.5 95.9 73.6 58% 29.92 0.0
04 00:35 SE 6 10.00 Fair CLR 74.3 58.1 57% 29.91 0.0
04 00:15 E 7 10.00 Fair CLR 75.9 57.7 53% 78 29.92 0.0
03 23:55 E 9 10.00 Fair CLR 76.3 57.7 53% 78 29.91 0.0
03 23:35 E 8 10.00 Fair CLR 75.7 58.1 54% 78 29.9 0.0
03 23:15 E 6 10.00 Fair CLR 76.3 57.7 53% 78 29.91 0.0
03 22:55 E 9 10.00 Fair CLR 76.5 57.7 52% 78 29.91 0.0
03 22:35 E 8 10.00 Fair CLR 77.2 57.6 51% 79 29.91 0.0
03 22:15 NE 9 10.00 Fair CLR 76.8 57.7 52% 79 29.9 0.0
03 21:55 NE 9 10.00 Fair CLR 79 57.2 47% 80 29.9 0.0
03 21:35 NE 10 10.00 Fair CLR 79.7 56.8 46% 80 29.89 0.0
03 21:15 NE 9 10.00 Fair CLR 79.7 57.2 46% 80 29.89 0.0
03 20:55 NE 8 10.00 Fair CLR 79.9 57.4 46% 80 29.88 0.0
03 20:35 NE 9 10.00 Fair CLR 81.1 57.6 45% 81 29.87 0.0
03 20:15 NE 8 10.00 Fair CLR 83.8 57.2 40% 83 29.87 0.0
03 19:55 NE 8 10.00 Fair CLR 86.2 56.3 36% 85 29.87 0.0
03 19:35 NE 6 10.00 Fair CLR 93.7 45 19% 90 29.86 0.0
03 19:15 N 3 10.00 Fair CLR 95.7 41.7 15% 91 29.86 0.0
03 18:55 NW 5 10.00 Fair CLR 96.1 39.7 97.2 91.6 14% 92 29.86 0.0
03 18:35 NW 6 10.00 Fair CLR 95.5 43.2 16% 91 29.86 0.0
03 18:15 W 8 10.00 Fair CLR 95.2 42.8 16% 91 29.86 0.0
03 17:55 W 8 10.00 Fair CLR 95.4 45 18% 91 29.86 0.0
03 17:35 W 9 10.00 Fair CLR 95.5 45.7 18% 92 29.86 0.0
03 17:15 W 10 G 18 10.00 Fair CLR 95.9 42.8 16% 92 29.86 0.0
03 16:55 W 10 G 17 10.00 Fair CLR 95.9 44.8 17% 92 29.86 0.0
03 16:35 W 8 10.00 Fair CLR 96.6 45.5 17% 93 29.86 0.0
03 16:15 NW 10 10.00 Fair CLR 96.8 44.2 16% 93 29.87 0.0
03 15:55 NW 14 10.00 Fair CLR 96.3 45 17% 92 29.87 0.0
03 15:35 W 7 10.00 Fair CLR 96.1 49.3 20% 93 29.87 0.0
03 15:15 NW 13 G 17 10.00 Fair CLR 95.4 50 21% 92 29.87 0.0
03 14:55 NW 12 G 17 10.00 Fair CLR 95.4 49.1 21% 92 29.87 0.0
03 14:35 NW 9 G 18 10.00 Fair CLR 94.6 52.5 24% 92 29.87 0.0
03 14:15 NW 13 G 18 10.00 Fair CLR 93.7 54 26% 91 29.88 0.0
03 13:35 W 10 G 20 10.00 Fair CLR 92.7 52.7 26% 90 29.88 0.0
03 13:15 W 13 G 18 10.00 Fair CLR 92.3 52.9 26% 90 29.89 0.0
03 12:55 W 12 G 20 10.00 Fair CLR 90.9 53.6 28% 89 29.9 0.0
03 12:35 W 10 10.00 Fair CLR 89.6 55.2 31% 88 29.9 0.0
03 12:15 W 12 10.00 NULL NULL 87.6 55.8 34% 86 29.91 0.0
03 11:55 W 10 G 16 10.00 Fair CLR 85.5 55.6 36% 84 29.91 0.0
03 11:35 W 14 10.00 Fair CLR 84.2 54.7 36% 83 29.9 0.0
03 11:15 W 14 10.00 Fair CLR 83.1 55.8 39% 82 29.9 0.0
03 10:55 W 12 10.00 NULL NULL 81.5 55.9 42% 81 29.89 0.0
03 10:15 W 10 10.00 Fair CLR 79.5 55.6 44% 80 29.89 0.0
03 09:55 W 10 10.00 Fair CLR 77 55.4 47% 79 29.88 0.0
03 09:35 W 14 G 20 10.00 Fair CLR 76.5 55.6 49% 78 29.88 0.0
03 09:15 W 13 G 16 10.00 Fair CLR 75.2 56.3 52% 78 29.89 0.0
03 08:55 SW 15 10.00 Fair CLR 73.6 56.3 55% 29.88 0.0
03 08:35 SW 7 10.00 Fair CLR 70 56.3 62% 29.89 0.0
03 08:15 SW 8 10.00 Fair CLR 70.9 55.8 59% 29.89 0.0
03 07:55 SW 12 10.00 Fair CLR 71.2 55.8 58% 29.88 0.0
03 07:35 SW 12 10.00 Fair CLR 70 55.8 61% 29.87 0.0
03 07:15 SW 8 10.00 Fair CLR 69.3 55.6 62% 29.87 0.0
03 06:55 SW 9 10.00 Fair CLR 70.3 55.4 77 68.4 59% 29.87 0.0
03 06:35 SW 13 10.00 Fair CLR 72 55 55% 29.87 0.0
03 06:15 SW 14 10.00 Fair CLR 72.9 54.9 53% 29.87 0.0
03 05:55 SW 16 G 25 10.00 Fair CLR 73.8 54.7 51% 29.87 0.0
03 05:35 SW 15 G 21 10.00 Fair CLR 73.8 54.9 52% 29.87 0.0
03 05:15 SW 15 10.00 Fair CLR 73.6 54.9 52% 29.87 0.0
03 04:55 S 15 G 22 10.00 Fair CLR 73 55.4 54% 29.87 0.0
03 04:35 S 14 10.00 Fair CLR 73.4 55.4 53% 29.87 0.0
03 04:15 SW 14 G 21 10.00 Fair CLR 74.8 55 50% 29.88 0.0
03 03:55 S 16 G 23 10.00 Fair CLR 76.1 54.7 48% 78 29.87 0.0
03 03:35 SW 17 G 23 10.00 Fair CLR 76.5 54.9 47% 78 29.87 0.0
03 03:15 SW 15 G 20 10.00 Fair CLR 75.2 55.6 51% 78 29.88 0.0
03 02:55 S 9 10.00 Fair CLR 71.1 56.8 61% 29.88 0.0
03 02:35 SW 7 10.00 Fair CLR 72.1 57.2 60% 29.88 0.0
03 02:15 SW 9 10.00 Fair CLR 69.8 57.4 65% 29.89 0.0
03 01:55 S 8 10.00 Fair CLR 69.1 57.4 66% 29.9 0.0
03 01:35 S 9 10.00 Fair CLR 70 57.2 64% 29.9 0.0
03 01:15 S 8 10.00 Fair CLR 69.8 57.2 64% 29.89 0.0
03 00:55 S 8 10.00 Fair CLR 71.1 56.7 94.1 69.1 61% 29.89 0.0
03 00:35 S 6 10.00 Fair CLR 69.3 56.3 64% 29.89 0.0
03 00:15 SW 7 10.00 Fair CLR 70.7 56.3 60% 29.89 0.0
02 23:55 SW 8 10.00 Fair CLR 71.6 55.4 57% 29.88 0.0
02 23:35 SW 8 10.00 Fair CLR 71.2 55.4 57% 29.89 0.0
02 23:15 SW 7 10.00 Fair CLR 70 54.5 58% 29.89 0.0
02 22:55 SW 6 10.00 Fair CLR 71.8 51.3 49% 29.89 0.0
02 22:35 SW 7 10.00 Fair CLR 73.2 49.8 44% 29.88 0.0
02 22:15 SW 5 10.00 Fair CLR 74.8 49.3 41% 29.89 0.0
02 21:55 SW 5 10.00 Fair CLR 76.1 48.6 38% 78 29.88 0.0
02 21:35 SW 9 10.00 Fair CLR 76.5 49.3 38% 78 29.88 0.0
02 21:15 S 6 10.00 Fair CLR 79 49.1 35% 79 29.87 0.0
02 20:55 SW 5 7.00 Fair CLR 78.4 51.3 39% 79 29.87 0.0
02 20:35 S 5 10.00 Fair CLR 81.7 51.8 36% 81 29.86 0.0
02 20:15 W 5 10.00 Fair CLR 83.3 51.4 33% 82 29.86 0.0
02 19:55 W 6 10.00 Fair CLR 86.4 49.5 28% 84 29.85 0.0
02 19:35 W 8 10.00 Fair CLR 90 47.5 23% 87 29.86 0.0
02 19:15 SW 10 10.00 Fair CLR 92.5 44.6 19% 89 29.85 0.0
02 18:55 S 14 10.00 Fair CLR 94.3 42.1 97 90 16% 90 29.85 0.0
02 18:35 SW 16 G 22 10.00 Fair CLR 95.2 41.4 15% 91 29.85 0.0
02 18:15 S 17 G 23 10.00 Fair CLR 95.7 41.7 15% 91 29.85 0.0
02 17:55 SW 16 G 28 10.00 Fair CLR 96.1 41.9 15% 92 29.85 0.0
02 17:35 S 16 G 22 10.00 Fair CLR 96.4 43.5 16% 92 29.85 0.0
02 17:15 SW 15 G 22 10.00 Fair CLR 96.6 47.5 19% 93 29.85 0.0
02 16:55 SW 16 G 22 10.00 Fair CLR 96.8 46.4 18% 93 29.86 0.0
02 16:35 SW 17 G 24 10.00 Fair CLR 96.8 45.9 17% 93 29.86 0.0
02 16:15 S 20 G 24 10.00 Fair CLR 96.4 47.3 19% 93 29.87 0.0
02 15:55 SW 17 G 26 10.00 Fair CLR 96.6 48.2 19% 93 29.88 0.0
02 15:35 SW 17 G 23 10.00 Fair CLR 96.4 48.2 19% 93 29.88 0.0
02 15:15 SW 16 G 22 10.00 Fair CLR 95.7 50.2 21% 93 29.89 0.0
02 14:55 SW 14 G 20 10.00 Fair CLR 95 51.3 23% 92 29.9 0.0
02 14:35 SW 13 G 18 10.00 Fair CLR 94.3 53.8 25% 92 29.91 0.0
02 14:15 SW 14 G 23 10.00 Fair CLR 93.6 55 27% 92 29.92 0.0
02 13:55 SW 13 G 22 10.00 Fair CLR 92.1 56.1 30% 90 29.92 0.0
02 13:35 SW 15 10.00 Fair CLR 91.4 56.5 31% 90 29.93 0.0
02 13:15 SW 13 G 20 10.00 Fair CLR 90.5 56.7 32% 89 29.94 0.0
02 12:55 SW 14 G 21 10.00 Fair CLR 89.8 56.8 89.8 62.8 33% 88 29.94 0.0
02 12:35 SW 13 G 17 10.00 Fair CLR 88.9 57.6 35% 88 29.95 0.0
02 12:15 SW 12 10.00 Fair CLR 87.4 57.4 36% 86 29.96 0.0
02 11:55 SW 12 10.00 Fair CLR 86.5 57.7 38% 86 29.96 0.0
02 11:35 SW 10 10.00 Fair CLR 85.1 58.5 41% 85 29.96 0.0
02 11:15 SW 12 10.00 Fair CLR 84 58.5 42% 84 29.96 0.0
02 10:55 SW 12 10.00 Fair CLR 82.8 58.8 44% 83 29.96 0.0
02 10:35 SW 14 10.00 Fair CLR 80.6 58.1 46% 81 29.96 0.0
02 10:15 SW 16 10.00 Fair CLR 79.3 57.9 48% 80 29.96 0.0
02 09:55 SW 14 10.00 Fair CLR 78.1 58.1 50% 79 29.97 0.0
02 09:35 SW 12 10.00 Fair CLR 76.5 58.5 54% 78 29.97 0.0
02 09:15 SW 12 10.00 Fair CLR 74.5 59 59% 29.97 0.0
02 08:55 S 9 10.00 Fair CLR 72.1 59.7 65% 29.97 0.0
02 08:35 S 7 10.00 Fair CLR 69.4 59.5 71% 29.97 0.0
02 08:15 S 8 10.00 Fair CLR 66.4 59.2 78% 29.98 0.0
02 07:35 S 7 10.00 Fair CLR 63.7 57.7 81% 29.97 0.0
02 07:15 S 3 10.00 Fair CLR 62.8 57.4 83% 29.98 0.0
02 06:55 S 6 10.00 Fair CLR 64.4 57.6 69.4 64.4 79% 29.97 0.0
02 06:35 S 8 10.00 Fair CLR 64.8 57.6 78% 29.97 0.0
02 06:15 S 7 10.00 Fair CLR 65.1 57.4 76% 29.97 0.0
02 05:55 Calm 10.00 Fair CLR 65.3 56.8 74% 29.97 0.0
02 05:35 S 5 10.00 Fair CLR 66.6 57.2 72% 29.97 0.0
02 05:15 S 5 10.00 Fair CLR 66.9 56.8 70% 29.97 0.0
02 04:55 S 6 10.00 Fair CLR 66.7 56.3 69% 29.97 0.0
02 04:35 S 5 10.00 Fair CLR 66.2 55.8 69% 29.97 0.0
02 04:15 S 5 10.00 Fair CLR 64.9 56.3 74% 29.98 0.0
02 03:55 SW 3 10.00 Fair CLR 65.5 55.9 71% 29.98 0.0
02 03:35 S 5 10.00 Fair CLR 65.5 55.9 71% 29.98 0.0
02 03:15 S 6 10.00 Fair CLR 65.7 56.5 72% 29.99 0.0
02 02:55 SW 5 10.00 Fair CLR 65.7 57 74% 29.99 0.0
02 02:35 SW 3 10.00 Fair CLR 66.2 57.2 73% 29.99 0.0
02 02:15 S 5 10.00 Fair CLR 68.2 56.7 67% 29.99 0.0
02 01:55 S 5 10.00 Fair CLR 68.7 57 66% 29.98 0.0
02 01:35 S 3 7.00 Fair CLR 67.8 58.1 71% 29.98 0.0
02 01:15 SE 7 10.00 Fair CLR 67.6 58.3 72% 29.98 0.0
02 00:55 Calm 10.00 Fair CLR 69.4 58.6 91 67.6 69% 29.98 0.0
02 00:35 W 7 10.00 Fair CLR 67.6 59.4 75% 29.98 0.0
02 00:15 W 7 10.00 Fair CLR 68.7 59.4 72% 29.97 0.0
01 23:55 W 7 10.00 Fair CLR 68.7 59.5 73% 29.97 0.0
01 23:35 W 7 10.00 Fair CLR 68.7 59.4 72% 29.97 0.0
01 23:15 W 6 10.00 Fair CLR 70.2 58.8 67% 29.97 0.0
01 22:55 W 3 10.00 Partly Cloudy SCT110 71.8 57.6 61% 29.98 0.0
01 22:35 Calm 10.00 Partly Cloudy SCT110 72.1 57.2 60% 29.98 0.0
01 22:15 W 8 10.00 Partly Cloudy SCT120 73.8 55.6 53% 29.98 0.0
01 21:55 W 8 10.00 Fair CLR 74.1 55.6 52% 29.98 0.0
01 21:35 W 7 10.00 Fair CLR 77.4 54 44% 79 29.97 0.0
01 21:15 SW 9 10.00 Partly Cloudy SCT120 81.7 52 36% 81 29.96 0.0
01 20:55 SW 9 10.00 Partly Cloudy SCT110 82 54 38% 81 29.95 0.0
01 20:35 SW 10 G 26 7.00 Partly Cloudy SCT120 82.6 54.1 38% 82 29.93 0.0
01 20:15 S 7 7.00 Fair CLR 81.5 55.8 41% 81 29.93 0.0
01 19:55 S 8 7.00 Fair CLR 86 52.9 32% 84 29.93 0.0
01 19:35 S 8 10.00 Fair CLR 88.5 52 29% 86 29.93 0.0
01 19:15 S 7 10.00 Fair CLR 90.5 52 27% 88 29.94 0.0
01 18:55 S 10 10.00 Fair CLR 92.3 48.9 94.1 88.9 23% 89 29.94 0.0
01 18:35 S 10 10.00 Fair CLR 92.3 48.7 22% 89 29.94 0.0
01 18:15 S 14 10.00 Fair CLR 92.5 48.2 22% 89 29.94 0.0
01 17:55 S 13 G 17 10.00 Fair CLR 92.1 48.7 23% 89 29.94 0.0
01 17:35 S 16 G 21 10.00 Fair CLR 92.5 49.3 23% 89 29.94 0.0
01 17:15 S 14 G 24 10.00 Fair CLR 92.7 48.2 22% 89 29.95 0.0
01 16:55 SW 13 G 22 10.00 Fair CLR 92.5 50.5 24% 89 29.95 0.0
01 16:35 S 14 10.00 Fair CLR 94.1 51.3 23% 91 29.95 0.0
01 16:15 S 15 G 23 10.00 Fair CLR 92.3 49.3 23% 89 29.96 0.0
01 15:55 SW 14 G 22 10.00 Partly Cloudy SCT100 92.1 50.5 24% 89 29.97 0.0
01 15:35 S 20 G 24 10.00 Partly Cloudy SCT100 92.1 51.3 25% 89 29.97 0.0
01 15:15 S 16 G 22 10.00 Partly Cloudy SCT110 93.7 51.4 24% 91 29.98 0.0
01 14:55 S 17 G 23 10.00 Fair CLR 93.7 52 24% 91 29.99 0.0
01 14:35 SW 14 G 18 10.00 Fair CLR 93 53.8 27% 91 29.99 0.0
01 14:15 SW 9 G 24 10.00 Fair CLR 93 55.6 28% 91 30 0.0
01 13:55 SW 10 G 16 10.00 Fair CLR 91.8 57.4 31% 90 30.01 0.0
01 13:35 SW 8 10.00 Fair CLR 90.7 58.1 33% 90 30.02 0.0
01 13:15 SW 8 10.00 Fair CLR 89.8 59.5 36% 89 30.03 0.0
01 12:55 SW 6 10.00 Fair CLR 88.2 59 88.2 63.7 37% 87 30.03 0.0
01 12:35 S 8 10.00 Fair CLR 87.3 59 39% 87 30.04 0.0
Date Time (cdt) Wind (mph) Vis. (mi.) Weather Sky Cond. Air Dwpt Max. Min. Relative Humidity Wind Chill (°F) Heat Index (°F) altimeter (in) sea level (mb) 1 hr 3 hr 6 hr
6 hour
Temperature (ºF) Pressure Precipitation (in)